Vorticity
nan nan nan nan nan nan nan nan nan nan nan nan nan nan nan nan nan nan nan nan nan nan nan nan nan nan nan nan nan nan nan nan nan nan nan nan nan nan nan nan nan nan nan nan
nan 8 5 10 4 5 12 4 11 9 -0 10 8 9 9 9 9 8 9 8 9 8 7 7 8 5 7 7 7 6 7 5 4 2 6 8 9 11 9 5 8 5 7 nan
nan 5 13 10 8 10 18 -3 4 9 9 10 3 16 12 12 11 10 8 10 10 9 8 8 6 6 6 7 7 6 7 6 5 5 6 6 5 6 10 10 5 10 9 nan
nan 1 7 10 7 11 11 9 16 8 -1 6 13 14 13 15 13 11 8 8 9 11 8 7 7 7 7 7 7 7 8 6 6 7 5 7 7 8 7 8 12 10 9 nan
nan 14 4 3 8 20 4 8 7 11 7 9 21 -9 16 15 13 15 14 11 8 8 10 9 9 6 7 8 8 8 9 8 8 6 5 8 6 4 8 15 12 5 8 nan
nan 1 9 4 3 9 7 10 7 7 10 5 4 14 16 6 17 14 18 14 12 9 9 9 9 9 9 8 8 10 12 14 15 15 14 8 11 15 12 14 11 8 9 nan
nan 15 -2 4 9 4 4 3 9 5 6 13 17 21 9 15 4 9 11 14 16 12 10 8 10 10 9 10 19 17 13 10 14 19 19 17 14 11 11 15 26 19 6 nan
nan 7 16 11 5 3 3 8 14 6 4 10 -4 4 11 19 10 9 9 7 12 20 23 13 12 8 14 13 14 20 17 11 9 7 6 7 10 11 11 11 12 13 12 nan
nan 15 18 -0 8 9 8 11 -2 8 10 7 6 12 12 5 2 4 6 9 11 13 26 26 11 20 19 17 8 10 7 6 6 4 2 6 8 8 10 11 9 9 11 nan
nan 12 1 7 13 6 8 10 20 9 4 7 14 14 9 18 15 6 5 8 11 9 6 15 15 20 17 11 10 10 5 5 4 1 3 8 9 6 7 8 7 8 10 nan
nan 13 10 12 5 8 13 10 3 2 7 8 12 11 17 11 12 15 7 5 8 10 11 9 10 10 11 9 8 5 4 -1 0 8 14 9 7 9 7 9 10 10 10 nan
nan 12 12 10 8 5 2 4 9 14 13 7 3 3 11 13 12 10 9 7 6 7 10 12 11 9 7 7 7 6 3 4 8 14 16 12 8 9 9 8 7 8 8 nan
nan 14 10 14 10 9 3 8 12 7 7 6 6 12 15 7 8 8 9 7 7 7 7 8 9 9 9 8 8 8 7 10 12 11 13 11 9 8 8 8 8 7 8 nan
nan 8 7 4 3 12 12 4 5 12 9 10 11 14 13 7 8 5 10 10 8 8 8 8 8 8 9 9 9 10 12 11 11 10 9 9 9 11 10 8 8 7 8 nan
nan 4 8 6 8 6 8 8 10 6 8 6 3 16 23 16 10 10 9 11 10 10 8 8 8 6 5 9 10 10 10 11 9 10 11 10 9 8 10 8 9 10 9 nan
nan 11 11 11 15 10 8 5 9 20 14 14 15 17 7 13 11 11 9 7 8 9 8 8 10 10 8 8 8 9 10 10 9 9 10 8 9 8 8 10 9 8 7 nan
nan 11 11 12 10 12 24 26 19 9 4 16 25 27 3 6 12 10 10 7 10 10 9 8 10 11 9 9 9 10 10 9 8 9 9 10 8 8 8 8 8 9 8 nan
nan 10 8 11 13 10 9 14 23 21 14 10 15 8 17 16 13 13 11 11 10 10 9 8 7 11 11 11 10 10 9 8 9 10 9 9 8 7 7 7 8 7 9 nan
nan 16 12 13 10 16 17 6 8 11 9 19 17 11 12 9 6 12 13 11 12 10 9 9 11 10 9 9 8 7 10 9 9 8 8 8 8 7 8 8 8 8 8 nan
nan 8 11 11 7 12 15 14 12 7 16 18 10 10 9 6 10 8 8 15 12 7 10 12 11 8 8 9 9 7 7 8 9 8 8 8 8 9 8 8 8 10 11 nan
nan 10 12 7 4 13 12 9 7 11 13 12 10 11 11 5 19 24 7 5 8 12 10 10 10 8 8 7 8 8 7 9 8 8 8 8 8 8 9 9 8 9 9 nan
nan 11 10 12 16 11 10 12 6 15 13 10 13 12 10 11 13 12 12 10 11 11 12 9 7 9 8 8 7 8 8 8 9 9 9 9 7 6 10 11 7 8 9 nan
nan 10 12 11 16 11 9 14 13 7 14 11 14 14 9 6 10 11 13 11 11 11 9 8 9 9 8 7 7 7 9 9 8 8 7 7 7 8 8 8 9 12 12 nan
nan 7 9 12 10 8 9 6 9 11 12 12 10 9 11 10 10 10 12 12 12 12 9 8 8 8 8 9 7 8 9 8 7 8 9 9 10 10 9 11 12 11 10 nan
nan 12 15 13 9 8 15 9 12 11 8 8 6 8 10 15 11 10 11 11 10 10 9 9 9 9 9 9 8 8 7 9 8 9 10 11 13 14 14 10 7 8 6 nan
nan nan nan nan nan nan nan nan nan nan nan nan nan nan nan nan nan nan nan nan nan nan nan nan nan nan nan nan nan nan nan nan nan nan nan nan nan nan nan nan nan nan nan nan
CAPE
347 559 162 203 202 233 352 191 149 226 295 269 317 398 462 795 716 436 340 320 341 289 386 417 426 477 411 99 78 240 497 1929 1018 807 481 369 360 208 132 199 382 1402 1308 1299
273 193 221 140 157 180 260 227 279 479 368 486 377 540 464 563 793 721 569 389 287 275 409 545 616 664 655 616 736 405 609 1401 1385 925 887 735 421 271 131 251 3148 1965 2152 2221
470 469 266 284 249 314 253 301 276 165 813 772 743 799 652 595 617 683 614 528 393 275 314 528 730 734 826 938 1078 1241 1794 2139 2282 2257 1348 1329 1295 1438 1156 691 1223 1549 2230 2353
486 564 176 248 190 95 59 218 110 314 362 518 1290 573 463 427 541 621 698 646 505 451 347 497 645 910 998 1078 1113 1575 2283 2599 2385 2997 2294 3378 2018 1251 761 796 584 2374 1966 1742
432 487 386 277 99 79 165 238 331 293 286 338 609 252 404 220 383 570 680 723 655 502 412 433 608 836 923 898 974 1430 3109 3095 2781 2882 3259 2336 2915 1961 2155 2178 2610 2335 1978 1339
501 532 597 406 273 218 182 396 431 380 303 295 336 607 170 18 334 225 480 627 798 734 565 437 419 631 744 763 982 1173 3359 4392 3269 2812 2509 2760 2364 2005 1796 1726 2598 1340 1091 536
676 673 629 460 437 486 467 464 499 416 360 488 225 527 317 36 186 453 665 672 818 915 874 687 513 489 608 741 936 1038 3160 3172 1761 793 662 518 573 411 695 370 789 222 542 134
392 348 559 323 155 354 295 603 430 504 349 263 176 62 617 463 628 1118 1128 1001 1036 1156 1145 1040 742 597 637 805 1179 871 646 285 209 69 2 4 32 11 4 1 2 1 30 29
418 389 103 0 0 0 23 252 188 272 215 265 188 383 190 230 448 917 1233 1095 1305 1559 2119 1098 1020 1229 1446 1953 616 296 131 97 143 0 10 1 3 7 3 1 1 0 1 4
29 157 91 6 0 0 0 0 6 238 241 169 153 205 187 133 322 1353 1508 1344 1241 1373 1607 1814 1998 2165 1637 734 406 210 101 4 2 3 0 0 0 0 6 6 5 4 6 5
0 0 0 0 0 0 0 0 0 0 0 34 16 107 233 223 545 1730 1651 1151 855 816 686 897 956 810 696 419 156 29 35 17 14 12 2 11 12 8 7 4 10 8 8 10
0 0 0 0 0 0 0 0 0 1 7 23 24 63 1017 1479 1807 1897 1218 765 518 510 597 605 577 526 180 8 20 41 24 9 57 35 44 42 17 9 10 6 6 7 7 5
0 0 0 1 0 0 0 0 0 0 0 1 15 42 1391 1547 1484 1552 1035 687 372 248 161 144 90 171 57 78 41 5 30 72 39 24 29 15 39 9 9 4 3 5 7 6
0 0 0 0 2 0 3 0 0 2 3 5 10 15 1300 1062 1558 964 1023 642 335 254 167 124 59 77 132 267 425 222 114 25 52 94 73 63 22 7 5 5 1 0 1 0
0 0 0 0 0 0 0 0 0 0 0 15 8 0 884 1257 1519 1297 1172 928 949 935 1029 960 759 642 670 312 415 241 185 90 70 98 55 67 56 23 4 4 0 0 0 0
0 8 0 0 0 0 0 0 0 1 0 8 13 6 1389 1532 1817 1293 1210 935 917 892 834 1005 874 710 601 543 557 472 380 320 271 197 149 170 106 16 1 0 0 0 0 1
0 4 33 15 19 20 25 6 2 6 3 50 42 1182 1191 1541 1606 1465 1297 1126 1198 1083 1194 1217 1165 1052 890 763 729 551 565 453 358 341 251 130 35 5 9 9 7 8 15 24
0 1 6 39 35 68 79 13 82 75 63 161 268 1012 1413 1912 1879 1691 1620 1524 1397 1328 1322 1284 1063 913 763 630 520 411 395 385 273 184 158 98 55 60 35 26 41 54 52 49
0 0 4 89 94 65 38 38 46 91 252 564 946 1625 1809 1674 1465 1425 1353 1279 1443 1429 1309 1178 1040 824 454 231 124 50 26 4 1 34 62 63 61 51 45 42 31 51 135 332
1 2 8 101 79 43 115 47 74 14 14 933 1359 1612 1610 1129 1062 1220 1133 1390 1467 1460 1406 1168 920 332 72 92 26 62 41 0 0 0 0 5 4 14 18 30 86 211 593 392
127 33 56 66 43 96 114 66 52 1 267 611 772 1015 1140 1040 1770 1657 1382 1467 1570 1591 1523 1238 143 20 164 206 138 65 11 0 0 0 1 3 16 34 34 43 107 111 257 353
167 225 132 103 85 110 121 91 73 735 514 560 764 1134 1360 1386 1087 1248 1458 1622 1598 1636 1396 318 30 92 330 297 359 488 315 106 7 3 30 65 82 55 133 626 389 282 517 730
68 173 234 250 423 375 226 541 479 582 729 823 1059 1135 1418 1013 836 1088 1563 1743 1717 1614 820 116 100 304 501 448 437 545 380 243 302 194 190 167 184 152 287 410 486 155 682 213
260 270 144 188 153 176 174 294 382 354 656 612 459 485 562 887 621 619 1040 1353 1516 1116 433 207 176 324 471 474 437 441 486 461 368 340 306 295 290 256 332 111 55 76 64 77
75 520 81 211 235 220 174 215 302 512 455 249 114 38 23 39 544 221 458 744 1025 945 563 334 443 653 618 516 470 407 446 386 357 154 59 30 11 11 154 404 23 15 364 12
167 111 149 287 365 139 414 246 318 341 224 70 29 34 16 3 244 546 504 731 736 865 840 788 803 923 944 704 624 687 516 472 405 5 1 2 4 5 5 8 24 0 0 0